Previsão horária em Aarberg

Hoje, 16 Janeiro, Sábado

Tempo Temperatura Precipitação Vento Pressão Humidade
00:00 -6°C° 0 mm 1 m/s 722 mmHg 95%
01:00 -7°C° 0 mm 1 m/s 722 mmHg 95%
02:00 -7°C° 0 mm 1 m/s 722 mmHg 94%
03:00 -7°C° 0 mm 1 m/s 722 mmHg 94%
04:00 -7°C° 0 mm 1 m/s 722 mmHg 93%
05:00 -7°C° 0 mm 1 m/s 723 mmHg 92%
06:00 -7°C° 0 mm 0 m/s 723 mmHg 91%
07:00 -6°C° 0 mm 0 m/s 723 mmHg 90%
08:00 -5°C° 0 mm 0 m/s 723 mmHg 88%
09:00 -5°C° 0 mm 0 m/s 722 mmHg 86%
10:00 -3°C° 0 mm 0 m/s 722 mmHg 84%
11:00 -2°C° 0 mm 0 m/s 722 mmHg 81%
12:00 -1°C° 0 mm 0 m/s 721 mmHg 79%
13:00 -1°C° 0 mm 0 m/s 721 mmHg 81%
14:00 -1°C° 0 mm 0 m/s 721 mmHg 84%
15:00 0°C° 0 mm 1 m/s 721 mmHg 86%
16:00 -1°C° 0 mm 1 m/s 721 mmHg 87%
17:00 -1°C° 0 mm 1 m/s 721 mmHg 88%
18:00 -1°C° 0 mm 1 m/s 721 mmHg 89%
19:00 -1°C° 0 mm 1 m/s 720 mmHg 89%
20:00 -3°C° 0 mm 2 m/s 720 mmHg 88%
21:00 -2°C° 0 mm 2 m/s 720 mmHg 88%
22:00 -2°C° 0.5 mm 3 m/s 720 mmHg 90%
23:00 -1°C° 0.5 mm 3 m/s 719 mmHg 93%

Amanhã, 17 Janeiro, Domingo

Tempo Temperatura Precipitação Vento Pressão Humidade
00:00 -2°C° 0.5 mm 4 m/s 719 mmHg 96%
01:00 -1°C° 0.5 mm 3 m/s 719 mmHg 96%
02:00 0°C° 0.5 mm 3 m/s 718 mmHg 97%
03:00 0°C° 0.5 mm 3 m/s 718 mmHg 97%
04:00 0°C° 0.2 mm 3 m/s 718 mmHg 97%
05:00 +1°C° 0.2 mm 3 m/s 718 mmHg 97%
06:00 +1°C° 0.2 mm 3 m/s 718 mmHg 97%
07:00 +1°C° 0.2 mm 3 m/s 719 mmHg 97%
08:00 +1°C° 0.2 mm 3 m/s 719 mmHg 96%
09:00 +1°C° 0.2 mm 3 m/s 719 mmHg 96%
10:00 +1°C° 0.2 mm 3 m/s 719 mmHg 96%
11:00 +2°C° 0.2 mm 3 m/s 719 mmHg 95%
12:00 +2°C° 0.2 mm 3 m/s 719 mmHg 95%
13:00 +1°C° 0.5 mm 3 m/s 719 mmHg 95%
14:00 +1°C° 0.5 mm 3 m/s 720 mmHg 96%
15:00 +1°C° 0.5 mm 3 m/s 720 mmHg 96%
16:00 +1°C° 0.3 mm 2 m/s 720 mmHg 96%
17:00 -1°C° 0.3 mm 2 m/s 721 mmHg 95%
18:00 +1°C° 0.3 mm 1 m/s 722 mmHg 95%
19:00 +1°C° 0.1 mm 1 m/s 722 mmHg 95%
20:00 0°C° 0.1 mm 1 m/s 722 mmHg 95%
21:00 0°C° 0.1 mm 1 m/s 723 mmHg 96%
22:00 0°C° 0 mm 1 m/s 723 mmHg 95%
23:00 -1°C° 0 mm 1 m/s 723 mmHg 95%

Depois de amanhã, 18 Janeiro, Segunda-feira

Tempo Temperatura Precipitação Vento Pressão Humidade
00:00 -1°C° 0 mm 1 m/s 723 mmHg 94%
01:00 -1°C° 0 mm 1 m/s 723 mmHg 94%
02:00 -1°C° 0 mm 1 m/s 723 mmHg 93%
03:00 -1°C° 0 mm 1 m/s 723 mmHg 92%
04:00 -1°C° 0 mm 1 m/s 723 mmHg 92%
05:00 -2°C° 0 mm 1 m/s 723 mmHg 92%
06:00 -2°C° 0 mm 1 m/s 724 mmHg 91%
07:00 -2°C° 0 mm 0 m/s 724 mmHg 90%
08:00 -2°C° 0 mm 0 m/s 724 mmHg 90%
09:00 -1°C° 0 mm 0 m/s 724 mmHg 89%
10:00 0°C° 0 mm 0 m/s 724 mmHg 88%
11:00 +1°C° 0 mm 0 m/s 723 mmHg 87%
12:00 +2°C° 0 mm 0 m/s 723 mmHg 86%
13:00 +2°C° 0 mm 0 m/s 723 mmHg 87%
14:00 +1°C° 0 mm 0 m/s 723 mmHg 89%
15:00 +1°C° 0 mm 0 m/s 722 mmHg 90%
16:00 0°C° 0 mm 0 m/s 723 mmHg 91%
17:00 -1°C° 0 mm 0 m/s 723 mmHg 91%
18:00 -2°C° 0 mm 0 m/s 723 mmHg 91%
19:00 -1°C° 0 mm 1 m/s 723 mmHg 90%
20:00 -1°C° 0 mm 1 m/s 723 mmHg 90%
21:00 -1°C° 0 mm 1 m/s 722 mmHg 89%
22:00 -1°C° 0 mm 1 m/s 722 mmHg 88%
23:00 -1°C° 0 mm 1 m/s 722 mmHg 87%

19 Janeiro, Terça-feira

Tempo Temperatura Precipitação Vento Pressão Humidade
00:00 -1°C° 0 mm 1 m/s 722 mmHg 86%
01:00 -1°C° 0 mm 1 m/s 721 mmHg 85%
02:00 -1°C° 0 mm 1 m/s 721 mmHg 84%
03:00 -1°C° 0 mm 1 m/s 721 mmHg 83%
04:00 -1°C° 0 mm 1 m/s 720 mmHg 82%
05:00 -1°C° 0 mm 1 m/s 720 mmHg 81%
06:00 -1°C° 0 mm 1 m/s 720 mmHg 80%
07:00 -2°C° 0 mm 2 m/s 720 mmHg 79%
08:00 -1°C° 0 mm 2 m/s 720 mmHg 79%
09:00 +1°C° 0 mm 2 m/s 719 mmHg 78%
10:00 +2°C° 0 mm 2 m/s 719 mmHg 79%
11:00 +3°C° 0 mm 2 m/s 719 mmHg 81%
12:00 +4°C° 0 mm 2 m/s 718 mmHg 82%
13:00 +4°C° 0 mm 2 m/s 718 mmHg 82%
14:00 +4°C° 0 mm 2 m/s 717 mmHg 83%
15:00 +5°C° 0 mm 1 m/s 717 mmHg 83%
16:00 +3°C° 0 mm 2 m/s 717 mmHg 82%
17:00 +2°C° 0 mm 2 m/s 717 mmHg 81%
18:00 +1°C° 0 mm 2 m/s 717 mmHg 79%
19:00 +1°C° 0 mm 2 m/s 717 mmHg 79%
20:00 +1°C° 0 mm 2 m/s 717 mmHg 80%
21:00 0°C° 0 mm 3 m/s 717 mmHg 80%
22:00 0°C° 0 mm 3 m/s 716 mmHg 80%
23:00 +1°C° 0 mm 3 m/s 716 mmHg 81%

20 Janeiro, Quarta-feira

Tempo Temperatura Precipitação Vento Pressão Humidade
00:00 +1°C° 0 mm 3 m/s 716 mmHg 81%
01:00 +1°C° 0 mm 3 m/s 716 mmHg 81%
02:00 +1°C° 0 mm 3 m/s 715 mmHg 80%
03:00 +1°C° 0 mm 3 m/s 715 mmHg 80%
04:00 +1°C° 0 mm 3 m/s 715 mmHg 79%
05:00 +1°C° 0 mm 3 m/s 714 mmHg 79%
06:00 +1°C° 0 mm 3 m/s 714 mmHg 78%
07:00 +1°C° 0 mm 3 m/s 714 mmHg 78%
08:00 +3°C° 0 mm 2 m/s 713 mmHg 78%
09:00 +3°C° 0 mm 2 m/s 713 mmHg 79%
10:00 +4°C° 0 mm 2 m/s 713 mmHg 79%
11:00 +6°C° 0 mm 1 m/s 712 mmHg 80%
12:00 +7°C° 0 mm 1 m/s 711 mmHg 81%
13:00 +6°C° 0 mm 1 m/s 711 mmHg 83%
14:00 +6°C° 0 mm 1 m/s 710 mmHg 84%
15:00 +5°C° 0 mm 1 m/s 709 mmHg 86%
16:00 +4°C° 0 mm 1 m/s 709 mmHg 86%
17:00 +3°C° 0 mm 1 m/s 709 mmHg 85%
18:00 +2°C° 0 mm 1 m/s 709 mmHg 85%
19:00 +2°C° 0 mm 1 m/s 709 mmHg 86%
20:00 +2°C° 0 mm 1 m/s 709 mmHg 86%
21:00 +2°C° 0 mm 1 m/s 709 mmHg 86%
22:00 +2°C° 0 mm 1 m/s 709 mmHg 86%
23:00 +2°C° 0 mm 1 m/s 709 mmHg 87%

21 Janeiro, Quinta-feira

Tempo Temperatura Precipitação Vento Pressão Humidade
00:00 +2°C° 0 mm 1 m/s 708 mmHg 87%
01:00 +2°C° 0 mm 2 m/s 708 mmHg 86%
02:00 +2°C° 0 mm 2 m/s 708 mmHg 86%
03:00 +1°C° 0 mm 3 m/s 708 mmHg 86%
04:00 +1°C° 0 mm 3 m/s 708 mmHg 85%
05:00 +1°C° 0 mm 3 m/s 708 mmHg 85%
06:00 +1°C° 0 mm 3 m/s 709 mmHg 84%
07:00 +2°C° 0 mm 3 m/s 709 mmHg 83%
08:00 +2°C° 0 mm 3 m/s 709 mmHg 83%
09:00 +3°C° 0 mm 3 m/s 709 mmHg 82%
10:00 +4°C° 0.1 mm 3 m/s 710 mmHg 83%
11:00 +5°C° 0.1 mm 4 m/s 710 mmHg 84%
12:00 +6°C° 0.1 mm 4 m/s 710 mmHg 85%
13:00 +6°C° 0.3 mm 4 m/s 710 mmHg 88%
14:00 +5°C° 0.3 mm 3 m/s 710 mmHg 90%
15:00 +5°C° 0.3 mm 3 m/s 710 mmHg 93%
16:00 +4°C° 0 mm 3 m/s 710 mmHg 91%
17:00 +3°C° 0 mm 3 m/s 710 mmHg 90%
18:00 +4°C° 0 mm 2 m/s 710 mmHg 89%
19:00 +4°C° 0 mm 2 m/s 709 mmHg 88%
20:00 +3°C° 0 mm 2 m/s 709 mmHg 88%
21:00 +4°C° 0 mm 1 m/s 709 mmHg 88%
22:00 +4°C° 0.1 mm 1 m/s 709 mmHg 88%
23:00 +4°C° 0.1 mm 1 m/s 708 mmHg 89%
Mostrar mais